Погода в Первомайском

Россия / Республика Крым     45°42′57″N   33°51′27″E
темп.,
°C
ветер,
м/с
пор.,
м/с
влажн.,
%
обл.,
%
осадки,
мм/ч
давл.,
гПа
погр.,
м
20 января, ср
ср2000:00−9ссв1285100 0.1 102330
03:00−10ююв2289100 0.1 102429
06:00−10юв22891 0.0 102336
09:00−9вюв23870 0.0 102473
12:00−4в347472 0.0 1024263
15:00−3в457781 0.0 1023347
18:00−6в479060 0.0 1024172
21:00−6вюв479679 0.0 1024164
21 января, чт
чт2100:00−5вюв349619 0.0 102590
03:00−5вюв369513 0.0 102493
06:00−4юв349438 0.0 102571
09:00−2вюв469346 0.0 1025126
12:00+2юв468598 0.0 1026201
15:00+4ююв467985 0.0 1024253
18:00+2ю349216 0.0 102554
21:00+2ю449227 0.0 102576
22 января, пт
пт2200:00+3ююз5129436 0.0 1025242
03:00+5ююз6139032 0.0 1024302
06:00+4ююз41192100 0.0 1023264
09:00+3ю5129088 0.0 1024225
12:00+8ю7137540 0.0 1023905
15:00+8ююз7127738 0.0 1022826
18:00+5ююз5118642 0.0 1021284
21:00+6ююз6148155 0.0 1021436
23 января, сб
сб2300:00+6ю7167554 0.0 1020413
03:00+6ю6167543 0.0 1019416
06:00+6ю6147228 0.0 1018348
09:00+6ю6157314 0.0 1019412
12:00+11ююз9147034 0.0 1018907
15:00+12ююз9147017 0.0 1017896
18:00+9ююз715730 0.0 1016491
21:00+9ююз7166944 0.0 1017493
24 января, вс
вс2400:00+8ю6167163 0.0 1016401
03:00+7ююв5126966 0.0 1015237
06:00+7ююв51265100 0.0 1014234
09:00+7ююв4768100 0.0 101499
12:00+12ю51253100 0.0 1012685
15:00+12ююз111762100 0.0 10111368
18:00+10ююз91673100 0.3 1011899
21:00+9ююз8177799 0.3 1011773